Tracking 25709 objects as of 24-May-2022
HD Live streaming from Space Station
objects crossing your sky now

DELTA 2 R/B(2)

Track DELTA 2 R/B(2) now!


NORAD ID: 26115
Int'l Code: 2000-017C
Perigee: 1,334.0 km
Apogee: 45,654.4 km
Inclination: 94.9 °
Period: 856.1 minutes
Semi major axis: 29865 km
RCS: 1.953 m2 (large)
Launch date: March 25, 2000
Source: United States (US)
Launch site: AIR FORCE WESTERN TEST RANGE (AFWTR)

Note: This is a ROCKET BODY
aabbcc
Your satellite tracking list
Your tracking list is empty




NASA's NSSDC Master Catalog

Two Line Element Set (TLE):
1 26115U 00017C   22143.83752481  .00000061  00000-0  11129-1 0  9995
2 26115  94.9479 291.3009 7420069 100.2990 342.8364  1.68211264136115
Source of the keplerian elements: AFSPC